[[{"header":{"parameterUnit":"m.s-1","parameterCategory":1,"la1":30.2991,"la2":30.254,"lo1":-89.0895,"lo2":-89.0444,"dy":0.0017,"dx":0.0017,"nx":28,"ny":28,"refTime":"2025-01-07T03:00:00:Z","depth":0,"parameterNumber":2,"parameterNumberName":"U-component_of_WINDS"},"data":[0,0,0,0,0,0,0,0,0,0,0,0,0,0,0,0,0,0,0,0,0,0,0,0,0,0,0,0,0,0,0,0,0,0,0,0,0,0,0,0,0,0,0,0,0,0,0,0,0,0,0,0,0,0,0,0,0,0,1.2634,1.2634,0,1.2626,1.2626,1.2626,1.262,1.262,1.262,1.262,1.2609,1.2609,1.2609,0,0,0,0,0,0,0,0,0,0,0,0,0,1.2643,1.2643,1.2634,1.2634,1.2634,1.2626,1.2626,1.2626,1.262,1.262,1.262,1.262,1.2609,1.2609,1.2609,0,0,0,0,0,0,0,0,0,0,0,0,0,1.2638,1.2643,1.2634,1.263,1.263,1.2626,1.2626,1.2626,1.262,1.262,1.262,1.262,1.261,1.2609,1.2609,1.2608,0,0,1.2608,1.2608,0,0,0,0,0,0,0,0,1.2638,1.2637,1.2631,1.263,1.263,1.2624,1.2626,1.262,1.262,1.2624,1.262,1.262,1.2614,1.2613,1.2612,1.2608,1.2607,1.2608,1.2608,1.2607,1.2607,0,0,0,0,0,0,0,1.2638,1.2638,1.2631,1.2631,1.263,1.2628,1.2627,1.2624,1.2619,1.2623,1.2623,1.2622,1.2614,1.2612,1.2612,1.2607,1.2608,1.2608,1.2607,1.2607,1.2603,1.2603,0,0,0,0,0,0,1.264,1.2638,1.2631,1.2631,1.2634,1.2628,1.2627,1.2626,1.2619,1.2618,1.2622,1.2622,1.2613,1.2612,1.2611,1.2611,1.2607,1.2607,1.2607,1.2603,1.2603,1.2603,0,0,0,0,0,0,1.264,1.2639,1.2632,1.2634,1.2633,1.2628,1.2627,1.2626,1.2624,1.2619,1.2617,1.2622,1.2613,1.2612,1.261,1.261,1.2607,1.2607,1.2603,1.2603,1.2603,1.2609,0,0,0,0,0,0,1.264,1.2639,1.2639,1.2634,1.2633,1.263,1.2627,1.2626,1.2624,1.2623,1.2618,1.2617,1.2613,1.261,1.2609,1.261,1.2606,1.2603,1.2603,1.2603,1.2609,1.2609,1.261,0,0,0,0,0,1.264,1.264,1.2639,1.2638,1.2633,1.263,1.2629,1.2625,1.2624,1.2624,1.262,1.2617,1.2611,1.261,1.2609,1.2609,1.2603,1.2603,1.2603,1.2609,1.2609,1.261,0,0,0,0,0,0,1.2644,1.2639,1.2638,1.2636,1.2634,1.2629,1.2628,1.2626,1.2623,1.2623,1.2618,1.2616,1.2615,1.2612,1.2611,1.2609,1.2606,1.2606,1.2611,1.2611,1.2612,1.2612,1.2606,0,0,0,0,0,1.2645,1.2643,1.2639,1.2638,1.2637,1.2633,1.2632,1.2629,1.2626,1.2625,1.2621,1.2618,1.2615,1.2613,1.261,1.2609,1.2608,1.2609,1.2609,1.261,1.261,1.2609,1.261,1.2604,1.2604,1.2604,0,0,1.2646,1.2643,1.2642,1.2639,1.2637,1.2635,1.2632,1.263,1.2629,1.2624,1.2622,1.2619,1.2615,1.2614,1.2613,1.2611,1.2611,1.261,1.2611,1.261,1.261,1.261,1.2611,1.2604,1.2604,1.2604,0,0,1.2647,1.2645,1.2644,1.2643,1.264,1.2637,1.2637,1.2633,1.2632,1.263,1.2626,1.2625,1.262,1.2617,1.2616,1.2618,1.2615,1.2617,1.262,1.262,1.262,1.262,1.2621,1.2622,1.2617,1.2617,1.2617,0,1.2649,1.2647,1.2644,1.2643,1.2642,1.2639,1.2638,1.2636,1.2632,1.2631,1.263,1.2625,1.2622,1.262,1.2621,1.2619,1.2619,1.2617,1.262,1.2621,1.2621,1.2622,1.2622,1.2618,1.2618,1.2618,1.2618,0,1.2649,1.2648,1.2647,1.2645,1.2644,1.2643,1.264,1.2639,1.2637,1.2635,1.2633,1.263,1.2627,1.2626,1.2624,1.2624,1.2624,1.2621,1.2618,1.2622,1.2623,1.2623,1.2618,1.2618,1.2618,1.2618,0,0,1.265,1.2648,1.2648,1.2647,1.2644,1.2643,1.2642,1.264,1.264,1.2638,1.2637,1.2634,1.2632,1.263,1.2628,1.2628,1.263,1.2626,1.2626,1.2627,1.2631,1.2632,1.2632,1.2629,1.2629,1.2629,1.2631,0,1.2651,1.265,1.2648,1.2648,1.2647,1.2645,1.2644,1.2642,1.2641,1.264,1.2638,1.2636,1.2634,1.2633,1.2633,1.263,1.2631,1.263,1.2627,1.2627,1.2628,1.2633,1.2634,1.2636,1.2631,1.2632,1.2632,0,1.2651,1.265,1.265,1.2648,1.2648,1.2647,1.2646,1.2645,1.2643,1.2642,1.2641,1.2639,1.2638,1.2636,1.2635,1.2634,1.2634,1.2632,1.2632,1.2631,1.2629,1.2631,1.2637,1.2637,1.2632,1.2632,1.2632,0,1.2653,1.2651,1.2651,1.265,1.2649,1.2648,1.2648,1.2646,1.2645,1.2644,1.2643,1.2642,1.2641,1.264,1.2637,1.2636,1.2637,1.2634,1.2635,1.2635,1.2634,1.2634,1.2639,1.2635,1.2635,1.2635,1.2635,0,1.2653,1.2653,1.2652,1.2651,1.2651,1.265,1.265,1.2649,1.2647,1.2647,1.2645,1.2644,1.2642,1.2641,1.2639,1.2639,1.2638,1.2637,1.2636,1.2637,1.2637,1.2635,1.2635,1.2635,1.2635,1.2635,1.2635,0,1.2654,1.2653,1.2653,1.2652,1.2652,1.2652,1.2651,1.265,1.2649,1.2649,1.2649,1.2647,1.2646,1.2644,1.2642,1.2641,1.2641,1.264,1.2641,1.2641,1.2642,1.2642,1.2645,1.2646,1.2642,1.2642,1.2642,0,1.2654,1.2654,1.2653,1.2653,1.2653,1.2653,1.2652,1.2651,1.2651,1.265,1.265,1.2649,1.2648,1.2647,1.2645,1.2644,1.2643,1.2645,1.2643,1.2644,1.2643,1.2643,1.2643,1.2644,1.2645,1.2645,1.2645,0,1.2654,1.2654,1.2654,1.2654,1.2654,1.2654,1.2653,1.2653,1.2652,1.2652,1.2652,1.2651,1.265,1.265,1.2649,1.2647,1.2646,1.2646,1.2646,1.2646,1.2646,1.2646,1.2642,1.2645,1.2645,1.2645,1.2645,1.2645,1.2654,1.2654,1.2654,1.2655,1.2655,1.2655,1.2655,1.2654,1.2654,1.2654,1.2653,1.2653,1.2652,1.2651,1.265,1.265,1.2649,1.2649,1.2649,1.2649,1.2649,1.2647,1.265,1.265,1.265,1.265,1.265,0,1.2654,1.2654,1.2655,1.2655,1.2655,1.2655,1.2655,1.2655,1.2655,1.2655,1.2655,1.2655,1.2655,1.2654,1.2653,1.2653,1.2653,1.2653,1.2653,1.2653,1.265,1.265,1.2654,1.2654,1.2654,1.2654,1.2654,1.2654,1.2654,1.2654,1.2655,1.2655,1.2656,1.2656,1.2656,1.2656,1.2656,1.2657,1.2657,1.2657,1.2656,1.2656,1.2656,1.2656,1.2655,1.2656,1.2655,1.2653,1.2653,1.2652,1.2652,1.2656,1.2656,1.2658,1.2658,1.2658]},{"header":{"parameterUnit":"m.s-1","parameterCategory":1,"la1":30.2991,"la2":30.254,"lo1":-89.0895,"lo2":-89.0444,"dy":0.0017,"dx":0.0017,"nx":28,"ny":28,"refTime":"2025-01-07T03:00:00:Z","depth":0,"parameterNumber":3,"parameterNumberName":"V-component_of_WINDS"},"data":[0,0,0,0,0,0,0,0,0,0,0,0,0,0,0,0,0,0,0,0,0,0,0,0,0,0,0,0,0,0,0,0,0,0,0,0,0,0,0,0,0,0,0,0,0,0,0,0,0,0,0,0,0,0,0,0,0,0,-8.4089,-8.4091,0,-8.4271,-8.4273,-8.4275,-8.4179,-8.4174,-8.4169,-8.4164,-8.4344,-8.4353,-8.4362,0,0,0,0,0,0,0,0,0,0,0,0,0,-8.3652,-8.3661,-8.4089,-8.4091,-8.4093,-8.427,-8.4273,-8.4275,-8.418,-8.4174,-8.4168,-8.4162,-8.4341,-8.4352,-8.4363,0,0,0,0,0,0,0,0,0,0,0,0,0,-8.3839,-8.3664,-8.4088,-8.4067,-8.4067,-8.427,-8.4273,-8.4276,-8.4181,-8.4174,-8.4166,-8.416,-8.4337,-8.4351,-8.4365,-8.4597,0,0,-8.4407,-8.4414,0,0,0,0,0,0,0,0,-8.3828,-8.3855,-8.4068,-8.4069,-8.4069,-8.4195,-8.4185,-8.4383,-8.4183,-8.4138,-8.4164,-8.4156,-8.43,-8.4316,-8.4366,-8.4605,-8.4613,-8.4409,-8.4417,-8.4423,-8.4427,0,0,0,0,0,0,0,-8.3816,-8.3847,-8.416,-8.4071,-8.4072,-8.4046,-8.4065,-8.4222,-8.4257,-8.4141,-8.4134,-8.4158,-8.4299,-8.4353,-8.437,-8.4616,-8.4408,-8.4421,-8.4429,-8.4435,-8.5054,-8.5062,0,0,0,0,0,0,-8.3805,-8.3836,-8.4155,-8.4166,-8.3929,-8.406,-8.4081,-8.4162,-8.4255,-8.4263,-8.4164,-8.4152,-8.4333,-8.4354,-8.4376,-8.4654,-8.4423,-8.4436,-8.4444,-8.5046,-8.5056,-8.5064,0,0,0,0,0,0,-8.3796,-8.3834,-8.4147,-8.4,-8.4038,-8.4076,-8.4167,-8.4169,-8.4224,-8.4273,-8.4278,-8.4213,-8.4328,-8.4356,-8.4543,-8.4659,-8.4442,-8.4455,-8.5036,-8.5049,-8.506,-8.5213,0,0,0,0,0,0,-8.3784,-8.3831,-8.3922,-8.4002,-8.4046,-8.4314,-8.4174,-8.4178,-8.4249,-8.4236,-8.432,-8.4327,-8.4324,-8.4523,-8.4557,-8.4674,-8.4466,-8.5026,-8.5042,-8.5056,-8.5198,-8.5229,-8.5255,0,0,0,0,0,-8.3768,-8.3956,-8.3927,-8.3966,-8.416,-8.4321,-8.4346,-8.434,-8.4258,-8.4349,-8.438,-8.4325,-8.4641,-8.4543,-8.4581,-8.4704,-8.5019,-8.5038,-8.5055,-8.5185,-8.5223,-8.5255,0,0,0,0,0,0,-8.3885,-8.3966,-8.3935,-8.4154,-8.4232,-8.4305,-8.4418,-8.4381,-8.4481,-8.4465,-8.4452,-8.4472,-8.4666,-8.4703,-8.4593,-8.4933,-8.4817,-8.4843,-8.4902,-8.4939,-8.4967,-8.4954,-8.4478,0,0,0,0,0,-8.3937,-8.4063,-8.4126,-8.4314,-8.4355,-8.438,-8.445,-8.444,-8.4518,-8.455,-8.4595,-8.4672,-8.4788,-8.4865,-8.4975,-8.5202,-8.5219,-8.5305,-8.5334,-8.5358,-8.5381,-8.5503,-8.5542,-8.5124,-8.5124,-8.5124,0,0,-8.4044,-8.4104,-8.4184,-8.4339,-8.4398,-8.4527,-8.4408,-8.455,-8.4645,-8.4571,-8.4751,-8.4787,-8.4871,-8.508,-8.5174,-8.5117,-8.55,-8.5381,-8.5399,-8.541,-8.5526,-8.5566,-8.5601,-8.5136,-8.5134,-8.5132,0,0,-8.4306,-8.4365,-8.4528,-8.459,-8.4681,-8.4697,-8.4736,-8.4816,-8.4837,-8.5018,-8.4965,-8.5077,-8.5278,-8.5341,-8.5399,-8.5686,-8.5639,-8.5722,-8.5872,-8.5992,-8.6025,-8.6054,-8.6156,-8.6193,-8.5744,-8.5745,-8.5745,0,-8.4428,-8.4623,-8.4616,-8.4763,-8.4832,-8.4773,-8.4937,-8.4996,-8.5118,-8.5166,-8.5101,-8.5353,-8.5406,-8.5628,-8.5698,-8.5747,-8.579,-8.5712,-8.6021,-8.605,-8.6077,-8.6175,-8.6213,-8.5754,-8.5753,-8.5752,-8.5751,0,-8.4768,-8.4904,-8.5024,-8.5147,-8.5229,-8.5384,-8.5398,-8.5482,-8.5464,-8.5486,-8.5671,-8.5732,-8.5854,-8.5905,-8.5888,-8.6126,-8.6087,-8.6022,-8.5905,-8.6127,-8.6218,-8.6255,-8.5768,-8.5765,-8.5762,-8.5759,0,0,-8.5109,-8.5226,-8.527,-8.5325,-8.5422,-8.5526,-8.5677,-8.5798,-8.5871,-8.5956,-8.6082,-8.6254,-8.6195,-8.6261,-8.625,-8.6355,-8.6578,-8.6277,-8.6278,-8.6331,-8.6843,-8.6892,-8.6936,-8.6548,-8.6555,-8.656,-8.6836,0,-8.5378,-8.5646,-8.5643,-8.589,-8.6015,-8.5961,-8.6092,-8.6165,-8.619,-8.6297,-8.6323,-8.6446,-8.6358,-8.6398,-8.6499,-8.653,-8.6681,-8.651,-8.6663,-8.6669,-8.6645,-8.6983,-8.7036,-8.7293,-8.6872,-8.6878,-8.6882,0,-8.5728,-8.5828,-8.6088,-8.6167,-8.622,-8.6338,-8.6449,-8.6554,-8.6634,-8.6645,-8.672,-8.6693,-8.6844,-8.6723,-8.6931,-8.6815,-8.6877,-8.6901,-8.6911,-8.6925,-8.6789,-8.7007,-8.7375,-8.7414,-8.6938,-8.6934,-8.693,0,-8.5951,-8.6151,-8.6332,-8.6381,-8.6477,-8.6562,-8.6606,-8.6679,-8.6752,-8.6848,-8.6895,-8.7007,-8.7068,-8.7154,-8.7157,-8.7069,-8.7368,-8.7246,-8.738,-8.738,-8.7445,-8.7441,-8.7829,-8.7485,-8.7485,-8.7484,-8.7483,0,-8.6252,-8.6413,-8.6434,-8.6546,-8.6724,-8.6719,-8.6896,-8.6931,-8.6997,-8.7113,-8.7071,-8.7181,-8.7178,-8.7289,-8.7292,-8.7464,-8.7491,-8.7503,-8.7502,-8.7508,-8.7506,-8.7548,-8.753,-8.7494,-8.7492,-8.749,-8.7488,0,-8.6532,-8.6552,-8.6747,-8.6823,-8.6846,-8.6974,-8.7038,-8.7144,-8.7164,-8.7312,-8.7346,-8.7378,-8.7507,-8.7518,-8.7666,-8.7668,-8.7876,-8.7855,-8.785,-8.7847,-8.798,-8.7967,-8.8408,-8.8466,-8.8084,-8.8088,-8.8091,0,-8.6723,-8.6846,-8.6936,-8.7013,-8.7062,-8.7185,-8.726,-8.7259,-8.7338,-8.744,-8.7533,-8.7657,-8.7757,-8.7964,-8.7999,-8.8112,-8.8094,-8.8241,-8.811,-8.8112,-8.8096,-8.8089,-8.8101,-8.8266,-8.827,-8.8274,-8.8276,0,-8.706,-8.7065,-8.7176,-8.7291,-8.7383,-8.7473,-8.7557,-8.7621,-8.763,-8.7721,-8.7853,-8.7931,-8.8083,-8.8207,-8.8318,-8.836,-8.832,-8.8317,-8.8354,-8.8361,-8.8353,-8.836,-8.792,-8.8307,-8.8304,-8.8302,-8.83,-8.8299,-8.7302,-8.7409,-8.749,-8.7615,-8.7679,-8.7759,-8.7862,-8.7896,-8.8007,-8.8133,-8.8125,-8.8271,-8.8347,-8.8492,-8.8543,-8.8655,-8.8606,-8.8659,-8.8673,-8.8686,-8.87,-8.8335,-8.8675,-8.8674,-8.8674,-8.8673,-8.8672,0,-8.7637,-8.7687,-8.7802,-8.7923,-8.8021,-8.7977,-8.8068,-8.8152,-8.8282,-8.8358,-8.8458,-8.8609,-8.8729,-8.8774,-8.8891,-8.8972,-8.8957,-8.9003,-8.8997,-8.9007,-8.8738,-8.8694,-8.9013,-8.9013,-8.9013,-8.9013,-8.9013,-8.9013,-8.7824,-8.8003,-8.8017,-8.8227,-8.8274,-8.8419,-8.8475,-8.8547,-8.8608,-8.878,-8.8881,-8.891,-8.8973,-8.9094,-8.9202,-8.9211,-8.9256,-8.9311,-8.9313,-8.906,-8.9026,-8.8993,-8.8953,-8.932,-8.9321,-8.9573,-8.9575,-8.9577]}]]